Beaufort, NC

11:16 AM EDT on July 26, 2017 (GMT -0400)
Smith

Weather History for KMRH - January, 2013

Change the Weather History Date:

Monday, January 7, 2013

  Actual Average Record
Temperature  
Mean Temperature 46 °F -  
Max Temperature 52 °F 56 °F 71 °F (2005)
Min Temperature 39 °F 38 °F 18 °F (2014)
Degree Days  
Heating Degree Days 20    
Moisture  
Dew Point 36 °F    
Average Humidity 71    
Maximum Humidity 93    
Minimum Humidity 52    
Precipitation  
Precipitation 0.00 in - - ()
Sea Level Pressure  
Sea Level Pressure 30.33 in    
Wind  
Wind Speed 10 mph (NNE)    
Max Wind Speed 14 mph    
Max Gust Speed 23 mph    
Visibility 10 miles    
Events      
Averages and records for this station are not official NWS values.
T = Trace of Precipitation, MM = Missing Value Source: NWS Daily Summary

Daily Weather History Graph

Daily Weather History Graph

Search for Another Location

Airport or City:

Trip Planner

Search our weather history database for the weather conditions in past years. The results will help you decide how hot, cold, wet, or windy it might be!

Date:

Astronomy

Jan. 07, 2013 Rise Set
Actual Time 7:14 AM EST 5:11 PM EST
Civil Twilight 6:46 AM EST 5:39 PM EST
Nautical Twilight 6:15 AM EST 6:10 PM EST
Astronomical Twilight 5:44 AM EST 6:41 PM EST
Moon 2:38 AM EST (1/7) 1:19 PM EST (1/7)
Length of Visible Light 10h 52m
Length of Day
9h 57m
Waning Crescent, 23% of the Moon is Illuminated
Jan 7
Waning Crescent
Jan 11
New
Jan 18
First Quarter
Jan 26
Full
Feb 3
Last Quarter

Hourly Weather History & Observations

Time (EST) Temp. Windchill Dew Point Humidity Pressure Visibility Wind Dir Wind Speed Gust Speed Precip Events Conditions
12:48 AM 46.4 °F 40.7 °F 44.6 °F 93% 30.13 in 9.0 mi NNW 12.7 mph - N/A   Overcast
12:58 AM 46.9 °F - 44.1 °F 90% 30.14 in 9.0 mi NNW 12.7 mph - N/A   Overcast
1:58 AM 46.0 °F 40.6 °F 43.0 °F 89% 30.16 in 10.0 mi NNW 11.5 mph - N/A   Overcast
2:58 AM 45.0 °F 39.7 °F 37.9 °F 76% 30.17 in 10.0 mi North 10.4 mph - N/A   Overcast
3:58 AM 43.0 °F 38.2 °F 36.0 °F 76% 30.18 in 10.0 mi North 8.1 mph - N/A   Clear
4:58 AM 42.1 °F 37.1 °F 35.1 °F 76% 30.21 in 10.0 mi North 8.1 mph - N/A   Clear
5:58 AM 41.0 °F 34.7 °F 35.1 °F 79% 30.24 in 10.0 mi NNW 10.4 mph - N/A   Clear
7:58 AM 41.0 °F 35.8 °F 34.0 °F 76% 30.30 in 10.0 mi NNW 8.1 mph - N/A   Clear
8:58 AM 44.1 °F 39.0 °F 35.1 °F 71% 30.34 in 10.0 mi NNE 9.2 mph - N/A   Clear
9:58 AM 48.9 °F - 37.0 °F 64% 30.37 in 10.0 mi NNE 12.7 mph 18.4 mph N/A   Clear
10:58 AM 52.0 °F - 35.1 °F 53% 30.37 in 10.0 mi NE 12.7 mph 18.4 mph N/A   Clear
11:58 AM 52.0 °F - 35.1 °F 53% 30.36 in 10.0 mi NE 13.8 mph 23.0 mph N/A   Clear
12:58 PM 52.0 °F - 36.0 °F 54% 30.36 in 10.0 mi NE 11.5 mph 19.6 mph N/A   Clear
1:58 PM 52.0 °F - 35.1 °F 53% 30.36 in 10.0 mi NE 12.7 mph 20.7 mph N/A   Clear
2:58 PM 51.1 °F - 34.0 °F 52% 30.38 in 10.0 mi NE 13.8 mph - N/A   Clear
3:58 PM 50.0 °F - 34.0 °F 54% 30.40 in 10.0 mi ENE 10.4 mph - N/A   Clear
4:58 PM 46.9 °F - 35.1 °F 63% 30.41 in 10.0 mi NE 6.9 mph - N/A   Clear
5:58 PM 44.1 °F 40.1 °F 35.1 °F 71% 30.43 in 10.0 mi ENE 6.9 mph - N/A   Clear
6:58 PM 44.1 °F 40.1 °F 35.1 °F 71% 30.45 in 10.0 mi NE 6.9 mph - N/A   Clear
7:58 PM 43.0 °F 40.3 °F 35.1 °F 74% 30.45 in 10.0 mi NE 4.6 mph - N/A   Clear
8:58 PM 41.0 °F 37.1 °F 35.1 °F 79% 30.45 in 10.0 mi NNE 5.8 mph - N/A   Clear
9:58 PM 39.9 °F 35.8 °F 35.1 °F 83% 30.43 in 10.0 mi NNE 5.8 mph - N/A   Clear
10:58 PM 39.0 °F 35.7 °F 34.0 °F 82% 30.43 in 10.0 mi North 4.6 mph - N/A   Clear
11:58 PM 39.0 °F 35.7 °F 34.0 °F 82% 30.41 in 10.0 mi NNE 4.6 mph - N/A   Clear